When you browse on this site, cookies collect data to enhance your experience and personalize the content and advertising you see.
Visit our Privacy Policy to learn more. By continuing to use the site, you agree to this use of cookies and data.
  • In Netherlands
  • List of Countries
  • For 7 days
  • Water Temperature
  • Satellite Maps
  • Weather Map
  • Weather Widgets
  • user-avatar
    Login

    Hourly Weather Ali Bayramli

    Today, 16 January, Wednesday

    Time Temperature Precipitation Wind Pressure Humidity
    00:00 +7°C° 0 mm 4 mps 755 mmHg 45%
    01:00 +6°C° 0 mm 4 mps 754 mmHg 46%
    02:00 +6°C° 0 mm 4 mps 754 mmHg 47%
    03:00 +6°C° 0 mm 4 mps 753 mmHg 48%
    04:00 +6°C° 0 mm 4 mps 753 mmHg 48%
    05:00 +6°C° 0 mm 5 mps 753 mmHg 49%
    06:00 +6°C° 0 mm 5 mps 753 mmHg 49%
    07:00 +7°C° 0 mm 5 mps 752 mmHg 47%
    08:00 +8°C° 0 mm 6 mps 752 mmHg 44%
    09:00 +9°C° 0 mm 6 mps 752 mmHg 40%
    10:00 +11°C° 0 mm 7 mps 752 mmHg 36%
    11:00 +13°C° 0 mm 8 mps 752 mmHg 32%
    12:00 +15°C° 0 mm 9 mps 751 mmHg 28%
    13:00 +16°C° 0 mm 8 mps 751 mmHg 27%
    14:00 +16°C° 0 mm 8 mps 751 mmHg 26%
    15:00 +17°C° 0 mm 7 mps 750 mmHg 27%
    16:00 +15°C° 0 mm 6 mps 750 mmHg 29%
    17:00 +14°C° 0 mm 5 mps 750 mmHg 32%
    18:00 +13°C° 0 mm 5 mps 750 mmHg 35%
    19:00 +12°C° 0 mm 4 mps 751 mmHg 37%
    20:00 +11°C° 0 mm 4 mps 751 mmHg 38%
    21:00 +10°C° 0 mm 4 mps 751 mmHg 39%
    22:00 +10°C° 0 mm 3 mps 751 mmHg 40%
    23:00 +9°C° 0 mm 3 mps 751 mmHg 41%

    Tomorrow, 17 January, Thursday

    Time Temperature Precipitation Wind Pressure Humidity
    00:00 +9°C° 0 mm 2 mps 752 mmHg 42%
    01:00 +8°C° 0 mm 3 mps 752 mmHg 50%
    02:00 +7°C° 0 mm 4 mps 752 mmHg 58%
    03:00 +7°C° 0 mm 5 mps 752 mmHg 65%
    04:00 +5°C° 0.1 mm 6 mps 752 mmHg 66%
    05:00 +5°C° 0.1 mm 7 mps 753 mmHg 68%
    06:00 +5°C° 0.1 mm 7 mps 753 mmHg 69%
    07:00 +5°C° 0.3 mm 8 mps 754 mmHg 67%
    08:00 +5°C° 0.3 mm 8 mps 754 mmHg 65%
    09:00 +5°C° 0.3 mm 8 mps 755 mmHg 63%
    10:00 +5°C° 0.6 mm 8 mps 755 mmHg 63%
    11:00 +5°C° 0.6 mm 7 mps 755 mmHg 63%
    12:00 +5°C° 0.6 mm 6 mps 755 mmHg 64%
    13:00 +4°C° 1 mm 6 mps 756 mmHg 67%
    14:00 +5°C° 1 mm 5 mps 756 mmHg 70%
    15:00 +5°C° 1 mm 4 mps 756 mmHg 73%
    16:00 +5°C° 0.4 mm 4 mps 757 mmHg 74%
    17:00 +5°C° 0.4 mm 4 mps 758 mmHg 75%
    18:00 +4°C° 0.4 mm 4 mps 758 mmHg 75%
    19:00 +4°C° 0.4 mm 4 mps 759 mmHg 75%
    20:00 +4°C° 0.4 mm 4 mps 759 mmHg 74%
    21:00 +4°C° 0.4 mm 4 mps 760 mmHg 74%
    22:00 +4°C° 0.1 mm 3 mps 760 mmHg 75%
    23:00 +4°C° 0.1 mm 3 mps 761 mmHg 76%

    Day after tomorrow, 18 January, Friday

    Time Temperature Precipitation Wind Pressure Humidity
    00:00 +3°C° 0.1 mm 3 mps 761 mmHg 77%
    01:00 +4°C° 0.2 mm 2 mps 762 mmHg 77%
    02:00 +4°C° 0.2 mm 2 mps 762 mmHg 77%
    03:00 +4°C° 0.2 mm 2 mps 763 mmHg 77%
    04:00 +4°C° 0.2 mm 2 mps 763 mmHg 76%
    05:00 +4°C° 0.2 mm 2 mps 763 mmHg 74%
    06:00 +4°C° 0.2 mm 2 mps 763 mmHg 73%
    07:00 +4°C° 0.1 mm 2 mps 764 mmHg 72%
    08:00 +4°C° 0.1 mm 2 mps 764 mmHg 70%
    09:00 +5°C° 0.1 mm 1 mps 765 mmHg 69%
    10:00 +6°C° 0.1 mm 1 mps 765 mmHg 68%
    11:00 +7°C° 0.1 mm 1 mps 765 mmHg 67%
    12:00 +7°C° 0.1 mm 1 mps 765 mmHg 66%
    13:00 +7°C° 0.1 mm 1 mps 765 mmHg 65%
    14:00 +7°C° 0.1 mm 2 mps 765 mmHg 64%
    15:00 +7°C° 0.1 mm 2 mps 765 mmHg 63%
    16:00 +6°C° 0 mm 2 mps 765 mmHg 66%
    17:00 +5°C° 0 mm 3 mps 766 mmHg 69%
    18:00 +4°C° 0 mm 3 mps 766 mmHg 72%
    19:00 +5°C° 0 mm 2 mps 766 mmHg 73%
    20:00 +4°C° 0 mm 2 mps 766 mmHg 75%
    21:00 +4°C° 0 mm 2 mps 766 mmHg 76%
    22:00 +5°C° 0 mm 1 mps 766 mmHg 79%
    23:00 +5°C° 0 mm 1 mps 766 mmHg 82%

    19 January, Saturday

    Time Temperature Precipitation Wind Pressure Humidity
    00:00 +4°C° 0 mm 1 mps 766 mmHg 84%
    01:00 +4°C° 0 mm 1 mps 765 mmHg 86%
    02:00 +4°C° 0 mm 1 mps 765 mmHg 87%
    03:00 +4°C° 0 mm 1 mps 765 mmHg 89%
    04:00 +4°C° 0 mm 1 mps 765 mmHg 88%
    05:00 +4°C° 0 mm 1 mps 765 mmHg 88%
    06:00 +4°C° 0 mm 1 mps 765 mmHg 88%
    07:00 +4°C° 0 mm 1 mps 765 mmHg 83%
    08:00 +5°C° 0 mm 1 mps 765 mmHg 79%
    09:00 +5°C° 0 mm 2 mps 765 mmHg 74%
    10:00 +6°C° 0 mm 2 mps 764 mmHg 68%
    11:00 +7°C° 0 mm 2 mps 764 mmHg 63%
    12:00 +8°C° 0 mm 2 mps 764 mmHg 57%
    13:00 +8°C° 0 mm 2 mps 763 mmHg 54%
    14:00 +8°C° 0 mm 2 mps 763 mmHg 51%
    15:00 +9°C° 0 mm 2 mps 763 mmHg 48%
    16:00 +9°C° 0 mm 1 mps 763 mmHg 53%
    17:00 +8°C° 0 mm 1 mps 763 mmHg 58%
    18:00 +6°C° 0 mm 0 mps 764 mmHg 63%
    19:00 +6°C° 0 mm 0 mps 764 mmHg 64%
    20:00 +5°C° 0 mm 0 mps 764 mmHg 66%
    21:00 +5°C° 0 mm 0 mps 764 mmHg 67%
    22:00 +4°C° 0 mm 0 mps 764 mmHg 69%
    23:00 +4°C° 0 mm 0 mps 765 mmHg 71%

    20 January, Sunday

    Time Temperature Precipitation Wind Pressure Humidity
    00:00 +4°C° 0 mm 0 mps 765 mmHg 72%
    01:00 +3°C° 0 mm 0 mps 765 mmHg 74%
    02:00 +3°C° 0 mm 0 mps 765 mmHg 75%
    03:00 +3°C° 0 mm 0 mps 765 mmHg 76%
    04:00 +3°C° 0 mm 0 mps 765 mmHg 77%
    05:00 +2°C° 0 mm 0 mps 765 mmHg 78%
    06:00 +2°C° 0 mm 0 mps 765 mmHg 78%
    07:00 +4°C° 0 mm 0 mps 766 mmHg 72%
    08:00 +6°C° 0 mm 1 mps 766 mmHg 66%
    09:00 +7°C° 0 mm 1 mps 766 mmHg 60%
    10:00 +8°C° 0 mm 1 mps 766 mmHg 56%
    11:00 +8°C° 0 mm 2 mps 766 mmHg 53%
    12:00 +9°C° 0 mm 2 mps 766 mmHg 49%
    13:00 +9°C° 0 mm 2 mps 765 mmHg 47%
    14:00 +9°C° 0 mm 2 mps 765 mmHg 45%
    15:00 +11°C° 0 mm 1 mps 765 mmHg 43%
    16:00 +9°C° 0 mm 1 mps 765 mmHg 48%
    17:00 +8°C° 0 mm 1 mps 765 mmHg 53%
    18:00 +6°C° 0 mm 0 mps 766 mmHg 59%
    19:00 +6°C° 0 mm 0 mps 766 mmHg 60%
    20:00 +5°C° 0 mm 0 mps 766 mmHg 61%
    21:00 +5°C° 0 mm 0 mps 766 mmHg 62%
    22:00 +5°C° 0 mm 0 mps 766 mmHg 63%
    23:00 +4°C° 0 mm 0 mps 766 mmHg 63%

    21 January, Monday

    Time Temperature Precipitation Wind Pressure Humidity
    00:00 +4°C° 0 mm 0 mps 766 mmHg 64%
    01:00 +4°C° 0 mm 0 mps 766 mmHg 63%
    02:00 +4°C° 0 mm 0 mps 766 mmHg 63%
    03:00 +5°C° 0 mm 1 mps 766 mmHg 63%
    04:00 +5°C° 0 mm 1 mps 766 mmHg 62%
    05:00 +4°C° 0 mm 1 mps 766 mmHg 61%
    06:00 +4°C° 0 mm 1 mps 766 mmHg 60%
    07:00 +5°C° 0 mm 1 mps 766 mmHg 55%
    08:00 +7°C° 0 mm 1 mps 766 mmHg 49%
    09:00 +8°C° 0 mm 1 mps 766 mmHg 44%
    10:00 +9°C° 0 mm 1 mps 766 mmHg 45%
    11:00 +10°C° 0 mm 1 mps 765 mmHg 46%
    12:00 +10°C° 0 mm 1 mps 765 mmHg 46%
    13:00 +11°C° 0 mm 1 mps 764 mmHg 46%
    14:00 +11°C° 0 mm 1 mps 764 mmHg 47%
    15:00 +10°C° 0 mm 2 mps 763 mmHg 47%
    16:00 +10°C° 0 mm 1 mps 763 mmHg 51%
    17:00 +9°C° 0 mm 1 mps 763 mmHg 55%
    18:00 +8°C° 0 mm 1 mps 763 mmHg 59%
    19:00 +8°C° 0 mm 1 mps 763 mmHg 59%
    20:00 +7°C° 0 mm 1 mps 763 mmHg 59%
    21:00 +7°C° 0 mm 1 mps 763 mmHg 60%
    22:00 +6°C° 0 mm 2 mps 763 mmHg 59%
    23:00 +5°C° 0 mm 2 mps 762 mmHg 58%
    Show more